Weather History for Keahole Point, HI

Change the Weather History Date:

Sunday, December 9, 2012

  Actual Average Record
Temperature  
Mean Temperature 76 °F -  
Max Temperature 82 °F 80 °F 88 °F (1989)
Min Temperature 71 °F 68 °F 65 °F (1986)
Cooling Degree Days 12    
Growing Degree Days 26 (Base 50)    
Moisture  
Dew Point 63 °F    
Average Humidity 63    
Maximum Humidity 73    
Minimum Humidity 52    
Precipitation  
Precipitation 0.00 in - - ()
Sea Level Pressure  
Sea Level Pressure 29.91 in    
Wind  
Wind Speed 5 mph (SSW)    
Max Wind Speed 10 mph    
Max Gust Speed -    
Visibility 10 miles    
Events Rain    
Averages and records for this station are not official NWS values.
T = Trace of Precipitation, MM = Missing Value Source: NWS Daily Summary

Daily Weather History Graph

Daily Weather History Graph

Search for Another Location

Airport:

Trip Planner

Search our weather history database for the weather conditions in past years. The results will help you decide how hot, cold, wet, or windy it might be!

Date:

Astronomy

Dec. 09, 2012 Rise Set
Actual Time 6:47 AM HST 5:45 PM HST
Civil Twilight 6:23 AM HST 6:09 PM HST
Nautical Twilight 5:56 AM HST 6:37 PM HST
Astronomical Twilight 5:29 AM HST 7:04 PM HST
Moon 2:55 AM HST (12/9) 2:41 PM HST (12/9)
Length of Visible Light 11h 45m
Length of Day
10h 58m
Waning Crescent, 17% of the Moon is Illuminated
Dec 9
Waning Crescent
Dec 12
New
Dec 19
First Quarter
Dec 28
Full
Jan 4
Last Quarter

Hourly Weather History & Observations

Time (HST) Temp. Heat Index Dew Point Humidity Pressure Visibility Wind Dir Wind Speed Gust Speed Precip Events Conditions
12:53 AM 73.0 °F - 61.0 °F 66% 29.92 in 10.0 mi SE 5.8 mph - N/A   Clear
1:53 AM 73.0 °F - 60.1 °F 64% 29.90 in 10.0 mi SSE 8.1 mph - N/A   Clear
2:53 AM 73.0 °F - 60.1 °F 64% 29.90 in 10.0 mi Calm Calm - N/A   Clear
3:53 AM 73.9 °F - 61.0 °F 64% 29.90 in 10.0 mi NE 6.9 mph - N/A   Clear
4:53 AM 72.0 °F - 59.0 °F 64% 29.90 in 10.0 mi ESE 3.5 mph - N/A   Scattered Clouds
5:53 AM 72.0 °F - 60.1 °F 66% 29.91 in 10.0 mi East 4.6 mph - N/A   Scattered Clouds
6:53 AM 71.1 °F - 60.1 °F 68% 29.93 in 10.0 mi East 4.6 mph - N/A   Clear
7:53 AM 73.9 °F - 60.1 °F 62% 29.94 in 10.0 mi WNW 3.5 mph - N/A   Mostly Cloudy
8:53 AM 78.1 °F - 63.0 °F 60% 29.94 in 10.0 mi WNW 4.6 mph - 0.00 in Rain Light Rain
9:53 AM 80.1 °F 81.2 °F 62.1 °F 54% 29.94 in 10.0 mi WNW 6.9 mph - 0.00 in   Clear
10:53 AM 81.0 °F 82.2 °F 63.0 °F 54% 29.92 in 10.0 mi NW 5.8 mph - N/A   Clear
11:53 AM 82.0 °F 83.1 °F 63.0 °F 52% 29.89 in 10.0 mi West 6.9 mph - N/A   Clear
12:53 PM 81.0 °F 82.7 °F 64.9 °F 58% 29.87 in 10.0 mi West 8.1 mph - N/A   Clear
1:53 PM 82.0 °F 84.1 °F 66.0 °F 58% 29.84 in 10.0 mi WSW 8.1 mph - N/A   Clear
2:53 PM 82.0 °F 84.1 °F 66.0 °F 58% 29.85 in 10.0 mi SW 10.4 mph - N/A   Clear
3:53 PM 80.1 °F 82.1 °F 66.0 °F 62% 29.86 in 10.0 mi WSW 6.9 mph - N/A   Clear
4:53 PM 80.1 °F 81.9 °F 64.9 °F 60% 29.87 in 10.0 mi SW 4.6 mph - N/A   Clear
5:53 PM 78.1 °F - 66.0 °F 66% 29.88 in 10.0 mi Calm Calm - N/A   Clear
6:53 PM 78.1 °F - 66.0 °F 66% 29.91 in 10.0 mi West 4.6 mph - N/A   Clear
7:53 PM 78.1 °F - 66.0 °F 66% 29.94 in 10.0 mi Calm Calm - N/A   Mostly Cloudy
8:53 PM 77.0 °F - 66.0 °F 69% 29.95 in 10.0 mi SE 3.5 mph - N/A   Mostly Cloudy
9:53 PM 75.9 °F - 64.9 °F 69% 29.96 in 10.0 mi SE 4.6 mph - N/A   Mostly Cloudy
10:53 PM 75.0 °F - 66.0 °F 73% 29.97 in 10.0 mi ESE 4.6 mph - N/A   Partly Cloudy
11:53 PM 75.0 °F - 64.9 °F 71% 29.96 in 10.0 mi SE 5.8 mph - N/A   Mostly Cloudy